Regional Weather Roundup
Issued by NWS Sioux Falls, SD

Home | Current Version | Previous Version | Graphics & Text | Print | Product List | Glossary On
Versions: 1 2 3 4 5 6 7 8 9 10 11 12 13 14 15 16 17 18 19 20 21 22 23 24 25 26 27 28 29 30 31 32 33 34 35 36 37 38 39 40 41 42 43 44 45 46 47 48 49 50
000
ASUS43 KFSD 210802
RWRFSD

WEATHER ROUNDUP FOR SE SOUTH DAKOTA/SW MINNESOTA/NW IOWA
NATIONAL WEATHER SERVICE SIOUX FALLS SD
300 AM CDT TUE APR 21 2015

NOTE: "FAIR" INDICATES FEW OR NO CLOUDS BELOW 12,000 FEET WITH NO
SIGNIFICANT WEATHER AND OR OBSTRUCTIONS TO VISIBILITY.


SDZ038>040-050-052>070-210900-
SOUTHEAST SOUTH DAKOTA

CITY           SKY/WX    TMP DP  RH WIND       PRES   REMARKS
BROOKINGS      CLEAR     30  25  80 N6        29.70F WCI  24
CHAMBERLAIN    NOT AVBL
HURON          CLEAR     29  14  53 W12       29.75F WCI  19
MADISON        FAIR      32  23  69 W14G21    29.71S WCI  22
MITCHELL       CLEAR     30  11  45 W12       29.78F WCI  20
SIOUX FALLS    CLEAR     32  20  61 W8        29.73  WCI  25
WINNER         FAIR      36  18  48 W12       29.83F
YANKTON        CLEAR     36  10  35 W12       29.79S
$$

MNZ071-072-080-081-089-090-097-098-210900-
SOUTHWEST MINNESOTA

CITY           SKY/WX    TMP DP  RH WIND       PRES   REMARKS
FAIRMONT       CLEAR     36  25  64 W16G22    29.64S
JACKSON        CLEAR     34  27  75 W13G18    29.66S WCI  25
LUVERNE        CLEAR     34  27  75 W14       29.71F WCI  24
MARSHALL       MOCLDY    34  23  64 W14       29.66S WCI  24
MONTEVIDEO     CLOUDY    37  28  70 N10       29.65S
PIPESTONE      CLEAR     28  25  86 W8        29.69S WCI  20
REDWOOD FALLS  CLEAR     34  27  75 W17       29.63S WCI  23
TRACY          PTCLDY    35  27  72 W9        29.67S WCI  28
WORTHINGTON    CLEAR     30  21  69 W12       29.69S WCI  21
$$

IAZ001>003-012>014-020>022-031-032-NEZ013-014-SDZ071-210900-
NORTHWEST IOWA

CITY           SKY/WX    TMP DP  RH WIND       PRES   REMARKS
DENISON        CLEAR     36  19  51 W8        29.75R
ESTHERVILLE    CLEAR     35  26  69 W16       29.67F WCI  25
SIOUX CITY     CLEAR     36  15  42 W8        29.78S
SPENCER        CLEAR     35  26  69 W13       29.71S WCI  26
$$

ABBREVIATIONS USED IN REMARKS
   TC - TEMPERATURE IN CELSIUS
  WCI - WIND CHILL INDEX
   HX - HEAT INDEX
  VSB - VISIBILITY



USA.gov is the U.S. government's official web portal to all federal, state and local government web resources and services.